Location: Newark
(51.0500°N, 12.4500°E)
Time: 10:58:03
(UTC+00:00)

A-11 Canister half - All Passes

Search period start: 17 February 2020 00:00
Search period end: 27 February 2020 00:00
Orbit: 1517 x 1683 km, 47.2° (Epoch: 16 February)

Date Brightness Start Highest point End Pass type
(mag) Time Alt. Az. Time Alt. Az. Time Alt. Az.
17 Feb - 00:23:34 10° W 00:28:42 16° SW 00:33:48 10° SSW night (unlit)
17 Feb - 15:41:59 10° SSW 15:50:30 34° SE 15:58:47 10° E daylight
17 Feb - 17:44:39 10° WSW 17:54:20 63° SSE 18:03:40 10° E visible
17 Feb - 19:49:12 10° W 19:58:51 70° S 20:08:10 10° ESE visible
17 Feb - 21:54:04 10° W 22:03:00 46° SSW 22:11:40 10° SE visible
18 Feb - 00:00:23 10° W 00:05:56 17° SW 00:11:27 10° SSW visible
18 Feb - 15:19:16 10° SSW 15:27:40 32° SE 15:35:50 10° E daylight
18 Feb - 17:21:45 10° WSW 17:31:26 62° SSE 17:40:48 10° E visible
18 Feb - 19:26:16 10° W 19:35:57 71° S 19:45:18 10° ESE visible
18 Feb - 21:31:08 10° W 21:40:09 48° SSW 21:48:54 10° SE visible
18 Feb - 23:37:14 10° W 23:43:10 19° SW 23:49:02 10° S visible
19 Feb - 14:56:33 10° SSW 15:04:50 31° SE 15:12:53 10° E daylight
19 Feb - 16:58:52 10° WSW 17:08:33 60° SSE 17:17:54 10° E visible
19 Feb - 19:03:19 10° W 19:13:03 71° S 19:22:26 10° ESE visible
19 Feb - 21:08:11 10° W 21:17:17 50° SSW 21:26:08 10° SE visible
19 Feb - 23:14:06 10° W 23:20:24 20° SW 23:26:36 10° S visible
20 Feb - 14:33:52 10° SSW 14:42:00 29° SE 14:49:55 10° E daylight
20 Feb - 16:35:59 10° SW 16:45:39 59° SSE 16:55:01 10° E daylight
20 Feb - 18:40:23 10° W 18:50:09 72° S 18:59:33 10° ESE visible
20 Feb - 20:45:14 10° W 20:54:26 51° SSW 21:03:21 10° SE visible
20 Feb - 22:51:01 10° W 22:57:36 22° SW 23:04:06 10° S visible
21 Feb - 14:11:12 10° S 14:19:10 28° SE 14:26:56 10° E daylight
21 Feb - 16:13:05 10° SW 16:22:46 58° SSE 16:32:07 10° E daylight
21 Feb - 18:17:26 10° W 18:27:14 72° S 18:36:41 10° E visible
21 Feb - 20:22:17 10° W 20:31:35 53° SSW 20:40:33 10° SE visible
21 Feb - 22:27:57 10° W 22:34:49 23° SW 22:41:35 10° S visible
22 Feb - 13:48:33 10° S 13:56:20 26° SE 14:03:57 10° E daylight
22 Feb - 15:50:13 10° SW 15:59:52 56° SSE 16:09:13 10° E daylight
22 Feb - 17:54:30 10° W 18:04:19 72° S 18:13:47 10° E visible
22 Feb - 19:59:21 10° W 20:08:43 55° SSW 20:17:45 10° SE visible
22 Feb - 22:04:53 10° W 22:12:02 25° SW 22:19:03 10° S visible
23 Feb - 13:25:56 10° S 13:33:31 25° SE 13:40:56 10° E daylight
23 Feb - 15:27:21 10° SW 15:36:59 55° SSE 15:46:20 10° E daylight
23 Feb - 17:31:33 10° W 17:41:25 72° S 17:50:55 10° E visible
23 Feb - 19:36:24 10° W 19:45:50 56° SSW 19:54:56 10° SE visible
23 Feb - 21:41:50 10° W 21:49:14 26° SW 21:56:29 10° S visible
24 Feb - 13:03:20 10° S 13:10:41 24° SE 13:17:55 10° E daylight
24 Feb - 15:04:29 10° SW 15:14:06 53° SSE 15:23:25 10° E daylight
24 Feb - 17:08:37 10° W 17:18:30 72° S 17:28:02 10° E visible
24 Feb - 19:13:28 10° W 19:22:58 58° SSW 19:32:08 10° SE visible
24 Feb - 21:18:49 10° W 21:26:26 28° SW 21:33:53 10° S visible
25 Feb - 12:40:46 10° S 12:47:53 22° SE 12:54:52 10° E daylight
25 Feb - 14:41:39 10° SW 14:51:12 51° SSE 15:00:31 10° E daylight
25 Feb - 16:45:41 10° WSW 16:55:35 72° S 17:05:09 10° E daylight
25 Feb - 18:50:31 10° W 19:00:05 60° SSW 19:09:18 10° SE visible
25 Feb - 20:55:48 10° W 21:03:38 29° SW 21:11:17 10° SSE visible
26 Feb - 12:18:13 10° S 12:25:04 21° SE 12:31:48 10° E daylight
26 Feb - 14:18:47 10° SW 14:28:19 50° SSE 14:37:36 10° E daylight
26 Feb - 16:22:44 10° WSW 16:32:40 71° S 16:42:16 10° E daylight
26 Feb - 18:27:33 10° W 18:37:11 61° SSW 18:46:28 10° ESE visible
26 Feb - 20:32:47 10° W 20:40:49 31° SW 20:48:39 10° SSE visible
